Location: Arroyo de Valdeoliva
(40.1604°N, 4.9878°W)
Time: 11:55:48
(UTC+00:00)

Tiangong - Pass Details

Date: 19 February 2026
Orbit: 381 x 391 km, 41.5° (Epoch: 8 March)

Event Time Altitude Azimuth Distance (km) Brightness Sun altitude
Rises 19:23:50 0° 283° (WNW) 2,256 3.3 -16.6°
Reaches altitude 10° 19:25:56 10° 278° (W) 1,399 2.0 -17.0°
Maximum altitude 19:29:01 52° 201° (SSW) 476 -1.6 -17.6°
Enters shadow 19:29:41 42° 155° (SSE) 555 -1.6 -17.8°
